Regional Weather Roundup
Issued by NWS Grand Forks, ND

Home | Current Version | Previous Version | Text Only | Print | Product List | Glossary Off
Versions: 1 2 3 4 5 6 7 8 9 10 11 12 13 14 15 16 17 18 19 20 21 22 23 24 25 26 27 28 29 30 31 32 33 34 35 36 37 38 39 40 41 42 43 44 45 46 47 48 49 50

000
ASUS43 KFGF 251231
RWRFGF
PRAIRIE TO PINES  WEATHER ROUNDUP
NATIONAL WEATHER SERVICE EASTERN NORTH DAKOTA/GRAND FORKS ND
700 AM CDT MON SEP 25 2017

 **SATELLITE DATA USED TO AUGMENT SKY COVER AT AUTOMATED STATIONS**
 *****  WEATHER ACROSS EASTERN NORTH DAKOTA  *****

CITY           SKY/WX    TMP DP  RH WIND       PRES   REMARKS
GRAND FORKS    CLOUDY    49  47  93 N8        30.11R
6HR MIN TEMP:  49; 6HR MAX TEMP:  50;

GRAND FRKS AFB CLOUDY    48  46  93 N7        30.13R
DEVILS LAKE    CLOUDY    47  42  83 N7        30.15R
6HR MIN TEMP:  47; 6HR MAX TEMP:  48; 6HR PCP:  0.02;

FARGO          CLOUDY    50  48  93 N8        30.09R
WAHPETON ARPT  PTSUNNY   48  45  87 N7G22     30.09S
$$

 ***** WEATHER ACROSS CENTRAL AND WESTERN NORTH DAKOTA  *****

CITY           SKY/WX    TMP DP  RH WIND       PRES   REMARKS
BISMARCK       CLOUDY    48  45  89 N3        30.16R
6HR MIN TEMP:  48; 6HR MAX TEMP:  49;

MINOT          CLOUDY    47  44  90 CALM      30.14R
6HR MIN TEMP:  47; 6HR MAX TEMP:  48;

JAMESTOWN      CLOUDY    48  45  89 N7        30.12R
6HR MIN TEMP:  46; 6HR MAX TEMP:  48;

MINOT AFB      CLOUDY    47  44  89 N5        30.13R
GARRISON         N/A     45  44  97 CALM      30.15R
WILLISTON      CLOUDY    45  44  97 CALM      30.16R
6HR MIN TEMP:  45; 6HR MAX TEMP:  46;

DICKINSON      CLOUDY    44  41  89 CALM      30.14R
6HR MIN TEMP:  43; 6HR MAX TEMP:  44;

HETTINGER      CLOUDY    43  37  79 CALM      30.17R
6HR MIN TEMP:  43; 6HR MAX TEMP:  44;

$$

 *****  OTHER AIRPORT OBSERVATIONS IN OUR AREA  *****

CITY           SKY/WX    TMP DP  RH WIND       PRES   REMARKS
WALHALLA       FAIR     N/A N/A N/A NW8       30.13R
GRAFTON AIRPOR NOT AVBL
VALLEY CITY AR NOT AVBL
CANDO          CLOUDY    46  46 100 CALM      30.17R
CAVALIER APRT  FAIR      46  45  93 N9        30.12R
GWINNER        CLOUDY    50  46  87 N7G13     30.10S
SHEYENNE NWR     N/A     50  49  98 N3        29.95S
ROLLA          FAIR      37  37 100 N5        30.15R
 ***** THE ABOVE OBSERVATIONS ARE NON NWS ARE NOT QUALITY
       CONTROLLED AND MAY MIS-REPORT RAIN FOR SNOW...
$$

  *****  WEATHER ACROSS NORTHERN MINNESOTA  *****

CITY           SKY/WX    TMP DP  RH WIND       PRES   REMARKS
FLAG ISLAND    CLOUDY    48  46  93 NW13      30.05R FOG
WARROAD        CLOUDY    46  43  87 W3        30.08R
ROSEAU         MOCLDY    46  41  81 N6        30.09R
HALLOCK        CLOUDY    48  45  87 N12       30.12R
THF RVR FALLS  CLOUDY    46  46 100 N10       30.09R
BAUDETTE       CLOUDY    49  49 100 NW14      30.04R
6HR MIN TEMP:  49; 6HR MAX TEMP:  50; 6HR PCP:  0.01;

WASKISH        CLOUDY    48  46  93 NW9       30.04S
CROOKSTON      CLOUDY    48  46  93 N14       30.10S
STEPHEN NDAWN    N/A     48  46  93 N10         N/A
GREENBUSH NDAW   N/A     46  45  93 NW6         N/A
$$
  *****  WEATHER ACROSS CENTRAL AND WEST MINNESOTA  *****

CITY           SKY/WX    TMP DP  RH WIND       PRES   REMARKS
FOSSTON        CLOUDY    45  45 100 N9        30.08S FOG
BEMIDJI        CLOUDY    47  46  98 NW6       30.05R
6HR MIN TEMP:  47; 6HR MAX TEMP:  48;

PARK RAPIDS    MOCLDY    50  47  89 N6        30.05R
6HR MIN TEMP:  48; 6HR MAX TEMP:  51;

ELBOW LAKE     CLOUDY    49  48  95 NW7       30.07S
WADENA         MOCLDY    48  48 100 N8        30.05R
DETROIT LAKES  CLOUDY    46  46 100 NW7       30.08R FOG
MOORHEAD       CLOUDY    48  46  93 N8        30.10R
FERGUS FALLS   MOCLDY    48  48 100 N8        30.08R
MORRIS MN      FAIR      52  48  87 NW9       30.06S
STAPLES        CLOUDY    48  48 100 N7        30.05R
$$
  *****  WEATHER ELSEWHERE ACROSS MINNESOTA  *****

CITY           SKY/WX    TMP DP  RH WIND       PRES   REMARKS
DULUTH         CLOUDY    54  54 100 NW8       29.98R
6HR MIN TEMP:  54; 6HR MAX TEMP:  65;

INTRNTL FALLS  CLOUDY    49  48  97 NW6       30.01R FOG
6HR MIN TEMP:  49; 6HR MAX TEMP:  54;

ELY            FAIR      52  50  93 NW5       29.98F
CLOQUET        CLOUDY    54  50  87 NW7       30.00R
WHEATON        CLOUDY    50  46  87 NW9       30.10S
BRAINERD       LGT RAIN  51  49  92 NW7       30.03R
6HR MIN TEMP:  51; 6HR MAX TEMP:  56; 6HR PCP: TRACE;

HIBBING        MOCLDY    49  48  97 NW3       30.01R
6HR MIN TEMP:  48; 6HR MAX TEMP:  60; 6HR PCP: TRACE;

ALEXANDRIA     CLOUDY    51  49  92 NW7       30.06R
6HR MIN TEMP:  50; 6HR MAX TEMP:  52; 6HR PCP:  0.05;

SAINT CLOUD    LGT RAIN  52  52 100 NW6       30.01R
6HR MIN TEMP:  52; 6HR MAX TEMP:  59; 6HR PCP:  0.17;

MINNEAPOLIS    CLOUDY    60  60 100 N7        29.99R
6HR MIN TEMP:  61; 6HR MAX TEMP:  71; 6HR PCP:  0.36;

$$

  *****  WEATHER ACROSS SOUTH DAKOTA  *****

CITY           SKY/WX    TMP DP  RH WIND       PRES   REMARKS
SIOUX FALLS    LGT RAIN  53  52  96 NE13      30.01F
6HR MIN TEMP:  53; 6HR MAX TEMP:  56; 6HR PCP:  0.45;

BROOKINGS      LGT RAIN  49  48  97 N13       30.04F
WATERTOWN      CLOUDY    48  48 100 N12       30.06S
6HR MIN TEMP:  48; 6HR MAX TEMP:  50;

HURON          MOCLDY    50  47  89 N13       30.08R
6HR MIN TEMP:  50; 6HR MAX TEMP:  52;

SISSETON         N/A     51  48  89 N10       30.09R
ABERDEEN       CLOUDY    49  47  93 N10       30.11R
6HR MIN TEMP:  49; 6HR MAX TEMP:  50;

MITCHELL       HVY RAIN  50  49  96 N10       30.05S FOG
PIERRE         CLOUDY    48  43  82 N6        30.13R
6HR MIN TEMP:  48; 6HR MAX TEMP:  49;

MOBRIDGE       CLOUDY    50  45  83 N6        30.12R
RAPID CITY     CLOUDY    45  43  93 N3        30.13
$$

  *****  SOME WEATHER IN NEARBY STATES *****

CITY           SKY/WX    TMP DP  RH WIND       PRES   REMARKS
GLASGOW MT     MOCLDY    38  36  92 E9        30.11S
6HR MIN TEMP:  37; 6HR MAX TEMP:  40;

GREAT FALLS MT FAIR      38  30  73 S10       30.04S
6HR MIN TEMP:  36; 6HR MAX TEMP:  42;

CHEYENNE WY    CLOUDY    38  37  97 NW3       30.12R FOG
6HR MIN TEMP:  38; 6HR MAX TEMP:  40;

SCOTTSBLUFF NE CLOUDY    44  40  85 N5        30.12S
6HR MIN TEMP:  41; 6HR MAX TEMP:  47; 6HR PCP:  0.05;

OMAHA NE       CLOUDY    63  59  87 NW12      29.96R
6HR MIN TEMP:  62; 6HR MAX TEMP:  65; 6HR PCP:  0.22;

DES MOINES IA  MOCLDY    67  63  87 SE3       29.93R
6HR MIN TEMP:  67; 6HR MAX TEMP:  73;

DAVENPORT IA   FAIR      63  60  90 SE5       29.99R
6HR MIN TEMP:  63; 6HR MAX TEMP:  70;

CHICAGO IL     FAIR      68  57  68 CALM      30.01R
6HR MIN TEMP:  67; 6HR MAX TEMP:  74;

EAU CLAIRE WI  MOCLDY    63  62  97 CALM      29.95R FOG
6HR MIN TEMP:  62; 6HR MAX TEMP:  71;

LA CROSSE WI   FAIR      67  64  90 SE6       29.94S
6HR MIN TEMP:  67; 6HR MAX TEMP:  76;

$$

  *****  SOME NATIONAL WEATHER *****

CITY           SKY/WX    TMP DP  RH WIND       PRES   REMARKS
LA GUARDIA NY  FAIR      73  67  81 NE3       30.06R
6HR MIN TEMP:  72; 6HR MAX TEMP:  74;

RALEIGH NC     PTSUNNY   66  62  87 CALM      30.01R
6HR MIN TEMP:  63; 6HR MAX TEMP:  66;

ATLANTA GA     FAIR      72  63  73 NE9       30.03R
6HR MIN TEMP:  71; 6HR MAX TEMP:  73;

NEW ORLEANS LA FAIR      76  72  87 NE6       29.90R
6HR MIN TEMP:  72; 6HR MAX TEMP:  77;

OKLAHOMA CITY  MOCLDY    68  64  87 S5        29.92R
6HR MIN TEMP:  68; 6HR MAX TEMP:  74;

ALBUQUERQUE NM MOCLDY    53  23  31 N6        29.99R
6HR MIN TEMP:  53; 6HR MAX TEMP:  61;

SALT LAKE CITY FAIR      42  41  96 SE5       30.11S
6HR MIN TEMP:  42; 6HR MAX TEMP:  46;

LOS ANGELES CA FAIR      64  43  46 CALM      29.82F
6HR MIN TEMP:  62; 6HR MAX TEMP:  73;

BOISE ID       FAIR      40  35  83 S5        30.08R
6HR MIN TEMP:  40; 6HR M


USA.gov is the U.S. government's official web portal to all federal, state and local government web resources and services.